Find USA 122

NORAD ID: 23893 Int'l Des: 1996-029 Owner: NROC/NRL Country: US operational
LEO

实时位置

正在加载3D地球...

关于 USA 122

正在加载描述...

即将过境

Passes for default location (London). Set your location on the main map for personalized predictions.

高度历史

Loading altitude history...

两行轨道根数

1 23893U 96029A 26106.97585474 .00001289 00000-0 22953-3 0 9999
2 23893 63.3221 352.2694 0848167 48.2455 318.7981 13.46081113 97031
Epoch: Apr 16, 2026 • Age: 6 hours

当前状态

高度 1372.8 km
速度 7.04 km/s
星下点 9.55°N, 121.54°W
发射日期 May 12, 1996
运行时间 29.9 years
类型 military

技术详情

分类 Payload
质量 3000.00 kg
干质量 3000.00 kg
总质量 3000.00 kg
长度 3.00 m
直径 4.00 m
跨度 4.00 m
形状 Cyl
制造商 LMA/DENV
平台类型 NOSS B
阶段状态 Attached in Orbit
所有者/国家 NROC/NRL/US

Most Searched